DETCC EDDV-EDDP

Flight info

Callsign DETCC
Flight time 1h 26m
Altitude 5000
Route POVEL4F POVEL Z94 KENIG T959 KOJEC KOJEC1V
Aircraft P28A/L-SDFRY/C

Departure

Time 2026-05-04 18:43
Airport Hannover Airport (EDDV)

Arrival

Time 2026-05-04 20:09
Airport Leipzig/Halle Airport (EDDP)
Time Latitude Longitude Altitude Speed Heading
2026-05-04 18:22 52.46329 9.69319 185 ft 0 kts 251°
2026-05-04 18:34 52.46327 9.69303 185 ft 3 kts 273°
2026-05-04 18:34 52.46356 9.69266 190 ft 8 kts 312°
2026-05-04 18:35 52.46350 9.69176 185 ft 8 kts 250°
2026-05-04 18:35 52.46327 9.69083 191 ft 9 kts 249°
2026-05-04 18:35 52.46302 9.68978 190 ft 11 kts 245°
2026-05-04 18:35 52.46271 9.68855 190 ft 13 kts 249°
2026-05-04 18:36 52.46222 9.68740 185 ft 12 kts 198°
2026-05-04 18:36 52.46142 9.68792 185 ft 14 kts 142°
2026-05-04 18:36 52.46059 9.68895 185 ft 16 kts 143°
2026-05-04 18:36 52.45967 9.69010 191 ft 17 kts 144°
2026-05-04 18:37 52.45867 9.69135 185 ft 19 kts 142°
2026-05-04 18:37 52.45782 9.69202 185 ft 12 kts 190°
2026-05-04 18:37 52.45700 9.69148 185 ft 13 kts 181°
2026-05-04 18:37 52.45658 9.69144 190 ft 6 kts 191°
2026-05-04 18:38 52.45620 9.69210 188 ft 12 kts 97°
2026-05-04 18:38 52.45615 9.69380 184 ft 18 kts 91°
2026-05-04 18:38 52.45609 9.69617 185 ft 23 kts 92°
2026-05-04 18:38 52.45600 9.69907 185 ft 28 kts 91°
2026-05-04 18:39 52.45591 9.70209 185 ft 24 kts 92°
2026-05-04 18:39 52.45586 9.70463 185 ft 22 kts 93°
2026-05-04 18:39 52.45578 9.70725 185 ft 24 kts 92°
2026-05-04 18:39 52.45569 9.70996 188 ft 20 kts 103°
2026-05-04 18:40 52.45498 9.71105 193 ft 10 kts 174°
2026-05-04 18:40 52.45491 9.71105 190 ft 0 kts 179°
2026-05-04 18:41 52.45476 9.71104 185 ft 7 kts 188°
2026-05-04 18:42 52.45412 9.71021 191 ft 18 kts 247°
2026-05-04 18:42 52.45417 9.70652 183 ft 56 kts 274°
2026-05-04 18:42 52.45437 9.69791 203 ft 90 kts 273°
2026-05-04 18:42 52.45461 9.68706 332 ft 98 kts 273°
2026-05-04 18:43 52.45480 9.67580 494 ft 100 kts 271°
2026-05-04 18:43 52.45497 9.66422 676 ft 99 kts 275°
2026-05-04 18:43 52.45541 9.65304 832 ft 101 kts 274°
2026-05-04 18:43 52.45537 9.64117 969 ft 102 kts 268°
2026-05-04 18:44 52.45557 9.62963 1152 ft 100 kts 278°
2026-05-04 18:44 52.45670 9.62224 1266 ft 99 kts 292°
2026-05-04 18:44 52.46005 9.60844 1385 ft 107 kts 263°
2026-05-04 18:44 52.45808 9.59723 1615 ft 99 kts 252°
2026-05-04 18:45 52.45610 9.58690 1827 ft 96 kts 263°
2026-05-04 18:45 52.45633 9.57622 2039 ft 91 kts 275°
2026-05-04 18:45 52.45690 9.56610 2247 ft 88 kts 275°
2026-05-04 18:45 52.45739 9.55617 2442 ft 87 kts 274°
2026-05-04 18:46 52.45778 9.54633 2624 ft 86 kts 273°
2026-05-04 18:46 52.45709 9.53669 2789 ft 87 kts 242°
2026-05-04 18:46 52.45233 9.53084 2964 ft 87 kts 204°
2026-05-04 18:46 52.44692 9.52675 3139 ft 86 kts 191°
2026-05-04 18:47 52.44136 9.52961 3299 ft 87 kts 137°
2026-05-04 18:47 52.43870 9.53842 3472 ft 87 kts 104°
2026-05-04 18:47 52.43698 9.54786 3639 ft 86 kts 109°
2026-05-04 18:47 52.43509 9.55722 3809 ft 86 kts 109°
2026-05-04 18:48 52.43309 9.56650 3959 ft 86 kts 110°
2026-05-04 18:48 52.43101 9.57578 4117 ft 87 kts 111°
2026-05-04 18:48 52.42889 9.58510 4276 ft 88 kts 112°
2026-05-04 18:48 52.42673 9.59444 4437 ft 88 kts 112°
2026-05-04 18:49 52.42454 9.60381 4602 ft 88 kts 112°
2026-05-04 18:49 52.42234 9.61323 4755 ft 89 kts 113°
2026-05-04 18:49 52.42015 9.62258 4907 ft 89 kts 114°
2026-05-04 18:49 52.41788 9.63220 5010 ft 96 kts 114°
2026-05-04 18:50 52.41529 9.64285 5014 ft 104 kts 115°
2026-05-04 18:50 52.41260 9.65415 5011 ft 109 kts 114°
2026-05-04 18:50 52.40981 9.66586 5008 ft 112 kts 114°
2026-05-04 18:50 52.40701 9.67777 5006 ft 113 kts 114°
2026-05-04 18:51 52.40417 9.68976 5013 ft 113 kts 114°
2026-05-04 18:51 52.40132 9.70182 5009 ft 114 kts 114°
2026-05-04 18:51 52.39846 9.71393 5011 ft 114 kts 114°
2026-05-04 18:51 52.39560 9.72602 5011 ft 114 kts 114°
2026-05-04 18:52 52.39273 9.73815 5006 ft 114 kts 114°
2026-05-04 18:52 52.38986 9.75026 5009 ft 114 kts 114°
2026-05-04 18:52 52.38699 9.76240 5008 ft 114 kts 114°
2026-05-04 18:52 52.38413 9.77448 5007 ft 114 kts 114°
2026-05-04 18:53 52.38127 9.78655 5007 ft 114 kts 114°
2026-05-04 18:53 52.37840 9.79865 5009 ft 114 kts 114°
2026-05-04 18:53 52.37557 9.81057 5006 ft 114 kts 114°
2026-05-04 18:53 52.37270 9.82264 5006 ft 114 kts 114°
2026-05-04 18:54 52.36984 9.83470 5003 ft 114 kts 114°
2026-05-04 18:54 52.36697 9.84674 5006 ft 114 kts 114°
2026-05-04 18:54 52.36409 9.85886 5005 ft 114 kts 114°
2026-05-04 18:54 52.36122 9.87091 5004 ft 114 kts 114°
2026-05-04 18:55 52.35834 9.88301 5001 ft 114 kts 114°
2026-05-04 18:55 52.35257 9.90724 5004 ft 114 kts 114°
2026-05-04 18:55 52.34967 9.91936 5004 ft 114 kts 114°
2026-05-04 18:56 52.34678 9.93146 5003 ft 114 kts 114°
2026-05-04 18:56 52.34389 9.94359 4999 ft 114 kts 114°
2026-05-04 18:56 52.34104 9.95552 5001 ft 115 kts 115°
2026-05-04 18:56 52.33814 9.96766 5000 ft 114 kts 114°
2026-05-04 18:57 52.33523 9.97978 5003 ft 114 kts 114°
2026-05-04 18:57 52.33234 9.99188 5001 ft 114 kts 114°
2026-05-04 18:57 52.32944 10.00400 4996 ft 114 kts 114°
2026-05-04 18:57 52.32654 10.01609 4994 ft 114 kts 114°
2026-05-04 18:58 52.32364 10.02820 4997 ft 114 kts 114°
2026-05-04 18:58 52.32074 10.04028 4996 ft 114 kts 114°
2026-05-04 18:58 52.31783 10.05238 4996 ft 115 kts 114°
2026-05-04 18:58 52.31492 10.06453 4999 ft 115 kts 114°
2026-05-04 18:59 52.31200 10.07666 4990 ft 115 kts 114°
2026-05-04 18:59 52.30909 10.08875 4993 ft 114 kts 114°
2026-05-04 18:59 52.30622 10.10071 4994 ft 114 kts 114°
2026-05-04 18:59 52.30331 10.11278 4994 ft 114 kts 114°
2026-05-04 19:00 52.30232 10.11689 4992 ft 114 kts 114°
2026-05-04 19:00 52.30066 10.12380 4991 ft 115 kts 114°
2026-05-04 19:00 52.29774 10.13591 4992 ft 115 kts 114°
2026-05-04 19:00 52.29482 10.14802 4992 ft 115 kts 114°
2026-05-04 19:01 52.29189 10.16014 4993 ft 114 kts 114°
2026-05-04 19:01 52.28898 10.17222 4989 ft 114 kts 115°
2026-05-04 19:01 52.28606 10.18432 4987 ft 114 kts 114°
2026-05-04 19:01 52.28317 10.19627 4989 ft 115 kts 114°
2026-05-04 19:02 52.28026 10.20836 4990 ft 114 kts 114°
2026-05-04 19:02 52.27733 10.22044 5000 ft 114 kts 114°
2026-05-04 19:02 52.27441 10.23252 4993 ft 114 kts 114°
2026-05-04 19:02 52.27149 10.24457 4996 ft 114 kts 114°
2026-05-04 19:03 52.26856 10.25664 4991 ft 114 kts 114°
2026-05-04 19:03 52.26565 10.26868 4992 ft 114 kts 114°
2026-05-04 19:03 52.26273 10.28070 4992 ft 114 kts 114°
2026-05-04 19:03 52.25981 10.29271 4995 ft 114 kts 115°
2026-05-04 19:04 52.25691 10.30470 4994 ft 114 kts 114°
2026-05-04 19:04 52.25398 10.31672 4992 ft 114 kts 114°
2026-05-04 19:04 52.25110 10.32864 4987 ft 112 kts 114°
2026-05-04 19:04 52.24920 10.33644 4994 ft 111 kts 114°
2026-05-04 19:05 52.24636 10.34813 4991 ft 110 kts 115°
2026-05-04 19:05 52.24352 10.35980 4990 ft 110 kts 114°
2026-05-04 19:05 52.24069 10.37142 4990 ft 110 kts 114°
2026-05-04 19:05 52.23787 10.38302 4990 ft 110 kts 115°
2026-05-04 19:06 52.23504 10.39461 4996 ft 110 kts 114°
2026-05-04 19:06 52.23221 10.40619 4989 ft 110 kts 115°
2026-05-04 19:06 52.22938 10.41781 4995 ft 110 kts 114°
2026-05-04 19:06 52.22653 10.42944 4994 ft 110 kts 115°
2026-05-04 19:07 52.22370 10.44109 4989 ft 110 kts 115°
2026-05-04 19:07 52.22085 10.45269 4992 ft 110 kts 115°
2026-05-04 19:07 52.21802 10.46428 4997 ft 110 kts 115°
2026-05-04 19:07 52.21518 10.47593 4996 ft 111 kts 115°
2026-05-04 19:08 52.21232 10.48756 4998 ft 110 kts 115°
2026-05-04 19:08 52.20947 10.49917 4996 ft 110 kts 115°
2026-05-04 19:08 52.20668 10.51062 4994 ft 110 kts 115°
2026-05-04 19:08 52.20383 10.52217 4996 ft 110 kts 115°
2026-05-04 19:09 52.20101 10.53373 4994 ft 110 kts 115°
2026-05-04 19:09 52.19817 10.54525 4996 ft 110 kts 115°
2026-05-04 19:09 52.19534 10.55683 4995 ft 110 kts 115°
2026-05-04 19:09 52.19248 10.56839 4995 ft 110 kts 115°
2026-05-04 19:10 52.18965 10.57996 4995 ft 110 kts 115°
2026-05-04 19:10 52.18680 10.59149 4995 ft 110 kts 115°
2026-05-04 19:10 52.18397 10.60302 4995 ft 110 kts 115°
2026-05-04 19:10 52.18113 10.61455 4993 ft 109 kts 115°
2026-05-04 19:11 52.17832 10.62593 4992 ft 110 kts 115°
2026-05-04 19:11 52.17549 10.63746 4994 ft 110 kts 115°
2026-05-04 19:11 52.17264 10.64898 4993 ft 110 kts 115°
2026-05-04 19:11 52.16980 10.66047 4991 ft 109 kts 115°
2026-05-04 19:12 52.16697 10.67198 4994 ft 109 kts 115°
2026-05-04 19:12 52.16131 10.69487 4994 ft 109 kts 115°
2026-05-04 19:12 52.15803 10.70592 4987 ft 108 kts 129°
2026-05-04 19:13 52.15215 10.71311 4990 ft 105 kts 152°
2026-05-04 19:13 52.14607 10.71987 4990 ft 106 kts 147°
2026-05-04 19:13 52.14011 10.72694 4989 ft 106 kts 146°
2026-05-04 19:13 52.13423 10.73417 4993 ft 106 kts 146°
2026-05-04 19:14 52.12838 10.74142 4991 ft 106 kts 146°
2026-05-04 19:14 52.12256 10.74873 4990 ft 106 kts 146°
2026-05-04 19:14 52.11682 10.75596 4989 ft 106 kts 145°
2026-05-04 19:14 52.11101 10.76326 4986 ft 106 kts 145°
2026-05-04 19:15 52.10519 10.77059 4990 ft 105 kts 145°
2026-05-04 19:15 52.09939 10.77790 4986 ft 105 kts 145°
2026-05-04 19:15 52.09359 10.78519 4988 ft 105 kts 145°
2026-05-04 19:15 52.08780 10.79249 4990 ft 105 kts 145°
2026-05-04 19:16 52.08199 10.79978 4989 ft 105 kts 145°
2026-05-04 19:16 52.07620 10.80709 4992 ft 105 kts 145°
2026-05-04 19:16 52.07047 10.81427 4991 ft 105 kts 145°
2026-05-04 19:16 52.06468 10.82156 4985 ft 105 kts 145°
2026-05-04 19:17 52.05891 10.82881 4989 ft 105 kts 145°
2026-05-04 19:17 52.05317 10.83604 4990 ft 104 kts 145°
2026-05-04 19:17 52.04743 10.84324 4987 ft 104 kts 145°
2026-05-04 19:17 52.04170 10.85042 4987 ft 104 kts 145°
2026-05-04 19:18 52.03598 10.85764 4986 ft 104 kts 145°
2026-05-04 19:18 52.03025 10.86483 4983 ft 104 kts 145°
2026-05-04 19:18 52.02450 10.87200 4987 ft 105 kts 145°
2026-05-04 19:18 52.01873 10.87923 4987 ft 105 kts 145°
2026-05-04 19:19 52.01295 10.88646 4984 ft 105 kts 145°
2026-05-04 19:19 52.00718 10.89369 4992 ft 105 kts 145°
2026-05-04 19:19 52.00141 10.90093 4989 ft 105 kts 145°
2026-05-04 19:19 51.99563 10.90816 4991 ft 105 kts 145°
2026-05-04 19:20 51.98986 10.91541 4988 ft 105 kts 145°
2026-05-04 19:20 51.98409 10.92263 4990 ft 105 kts 145°
2026-05-04 19:20 51.97839 10.92976 4989 ft 104 kts 145°
2026-05-04 19:20 51.97265 10.93694 4986 ft 104 kts 145°
2026-05-04 19:21 51.96695 10.94404 4985 ft 103 kts 145°
2026-05-04 19:21 51.96127 10.95115 4987 ft 103 kts 145°
2026-05-04 19:21 51.95559 10.95825 4983 ft 103 kts 145°
2026-05-04 19:21 51.94988 10.96536 4984 ft 103 kts 145°
2026-05-04 19:22 51.94422 10.97247 4985 ft 103 kts 145°
2026-05-04 19:22 51.93853 10.97955 4986 ft 103 kts 145°
2026-05-04 19:22 51.93284 10.98664 4986 ft 103 kts 145°
2026-05-04 19:22 51.92713 10.99376 4987 ft 103 kts 145°
2026-05-04 19:23 51.92144 11.00085 4988 ft 103 kts 145°
2026-05-04 19:23 51.91577 11.00795 4984 ft 103 kts 145°
2026-05-04 19:23 51.91007 11.01503 4983 ft 103 kts 145°
2026-05-04 19:23 51.90436 11.02212 4983 ft 104 kts 145°
2026-05-04 19:24 51.89863 11.02927 4983 ft 104 kts 145°
2026-05-04 19:24 51.89297 11.03630 4983 ft 104 kts 145°
2026-05-04 19:24 51.88724 11.04345 4982 ft 104 kts 145°
2026-05-04 19:24 51.88149 11.05057 4983 ft 104 kts 145°
2026-05-04 19:25 51.87577 11.05771 4978 ft 104 kts 145°
2026-05-04 19:25 51.87005 11.06481 4982 ft 104 kts 146°
2026-05-04 19:25 51.86434 11.07192 4981 ft 103 kts 145°
2026-05-04 19:25 51.85863 11.07899 4981 ft 104 kts 145°
2026-05-04 19:26 51.85289 11.08612 4981 ft 104 kts 145°
2026-05-04 19:26 51.84712 11.09328 4980 ft 105 kts 145°
2026-05-04 19:26 51.84134 11.10043 4977 ft 105 kts 145°
2026-05-04 19:26 51.83557 11.10761 4980 ft 105 kts 145°
2026-05-04 19:27 51.82980 11.11476 4981 ft 104 kts 145°
2026-05-04 19:27 51.82404 11.12190 4978 ft 104 kts 145°
2026-05-04 19:27 51.81827 11.12906 4979 ft 104 kts 145°
2026-05-04 19:27 51.81250 11.13622 4979 ft 104 kts 145°
2026-05-04 19:28 51.80681 11.14326 4980 ft 104 kts 145°
2026-05-04 19:28 51.80105 11.15040 4978 ft 104 kts 145°
2026-05-04 19:28 51.79530 11.15752 4998 ft 104 kts 145°
2026-05-04 19:28 51.78956 11.16461 4999 ft 104 kts 145°
2026-05-04 19:29 51.78380 11.17174 4995 ft 104 kts 145°
2026-05-04 19:29 51.77807 11.17882 4997 ft 104 kts 145°
2026-05-04 19:29 51.77235 11.18589 4993 ft 103 kts 145°
2026-05-04 19:29 51.76662 11.19297 4997 ft 104 kts 145°
2026-05-04 19:30 51.76090 11.20005 4992 ft 104 kts 145°
2026-05-04 19:30 51.75518 11.20711 4995 ft 104 kts 145°
2026-05-04 19:30 51.74945 11.21418 4994 ft 103 kts 145°
2026-05-04 19:30 51.74374 11.22121 4992 ft 103 kts 145°
2026-05-04 19:31 51.73803 11.22828 4994 ft 103 kts 145°
2026-05-04 19:31 51.73232 11.23532 4995 ft 103 kts 145°
2026-05-04 19:31 51.72660 11.24235 4994 ft 103 kts 145°
2026-05-04 19:31 51.72089 11.24939 4994 ft 103 kts 145°
2026-05-04 19:32 51.71524 11.25636 4995 ft 103 kts 145°
2026-05-04 19:32 51.70953 11.26337 4993 ft 103 kts 145°
2026-05-04 19:32 51.70385 11.27039 4993 ft 103 kts 145°
2026-05-04 19:32 51.69815 11.27743 4992 ft 103 kts 145°
2026-05-04 19:33 51.69240 11.28445 4995 ft 104 kts 145°
2026-05-04 19:33 51.68667 11.29152 4997 ft 104 kts 145°
2026-05-04 19:33 51.68092 11.29858 4995 ft 104 kts 145°
2026-05-04 19:33 51.67520 11.30562 4993 ft 103 kts 145°
2026-05-04 19:34 51.66950 11.31264 4993 ft 103 kts 145°
2026-05-04 19:34 51.66379 11.31965 4995 ft 103 kts 145°
2026-05-04 19:34 51.65807 11.32666 4994 ft 103 kts 145°
2026-05-04 19:34 51.65237 11.33367 4994 ft 103 kts 145°
2026-05-04 19:35 51.64667 11.34066 4995 ft 103 kts 145°
2026-05-04 19:35 51.64097 11.34765 4999 ft 103 kts 145°
2026-05-04 19:35 51.63550 11.35508 4988 ft 104 kts 133°
2026-05-04 19:35 51.63315 11.36608 4989 ft 108 kts 95°
2026-05-04 19:36 51.63305 11.37809 4996 ft 107 kts 97°
2026-05-04 19:36 51.63235 11.38997 4996 ft 107 kts 97°
2026-05-04 19:36 51.63178 11.40173 4996 ft 106 kts 97°
2026-05-04 19:36 51.63116 11.41367 4995 ft 107 kts 97°
2026-05-04 19:37 51.63055 11.42561 4993 ft 108 kts 97°
2026-05-04 19:37 51.62994 11.43763 4996 ft 108 kts 97°
2026-05-04 19:37 51.62931 11.44966 4995 ft 108 kts 97°
2026-05-04 19:37 51.62869 11.46164 4993 ft 107 kts 97°
2026-05-04 19:38 51.62808 11.47361 4995 ft 107 kts 97°
2026-05-04 19:38 51.62748 11.48559 4995 ft 108 kts 97°
2026-05-04 19:38 51.62688 11.49763 4993 ft 108 kts 97°
2026-05-04 19:38 51.62655 11.50968 4994 ft 108 kts 94°
2026-05-04 19:39 51.62631 11.52174 4994 ft 108 kts 95°
2026-05-04 19:39 51.62609 11.53381 4990 ft 108 kts 94°
2026-05-04 19:39 51.62583 11.54586 4992 ft 108 kts 94°
2026-05-04 19:39 51.62556 11.55792 4991 ft 108 kts 94°
2026-05-04 19:40 51.62528 11.57003 4990 ft 108 kts 95°
2026-05-04 19:40 51.62503 11.58213 4993 ft 108 kts 95°
2026-05-04 19:40 51.62477 11.59419 4993 ft 108 kts 94°
2026-05-04 19:40 51.62450 11.60621 4991 ft 107 kts 94°
2026-05-04 19:41 51.62425 11.61804 4990 ft 107 kts 95°
2026-05-04 19:41 51.62402 11.63002 4987 ft 107 kts 94°
2026-05-04 19:41 51.62379 11.64198 4983 ft 107 kts 94°
2026-05-04 19:41 51.62354 11.65387 4983 ft 106 kts 95°
2026-05-04 19:42 51.62330 11.66572 4988 ft 106 kts 94°
2026-05-04 19:42 51.62308 11.67769 4987 ft 108 kts 95°
2026-05-04 19:42 51.62284 11.68979 4988 ft 108 kts 94°
2026-05-04 19:42 51.62257 11.70191 4990 ft 109 kts 95°
2026-05-04 19:43 51.62230 11.71409 4993 ft 109 kts 94°
2026-05-04 19:43 51.62203 11.72623 4991 ft 109 kts 94°
2026-05-04 19:43 51.62175 11.73842 4988 ft 109 kts 95°
2026-05-04 19:43 51.62147 11.75062 4988 ft 109 kts 95°
2026-05-04 19:44 51.62119 11.76278 4987 ft 109 kts 94°
2026-05-04 19:44 51.62091 11.77497 4991 ft 109 kts 94°
2026-05-04 19:44 51.62065 11.78708 4991 ft 108 kts 95°
2026-05-04 19:44 51.62038 11.79917 4990 ft 108 kts 94°
2026-05-04 19:45 51.62011 11.81123 4988 ft 108 kts 95°
2026-05-04 19:45 51.61984 11.82331 4982 ft 108 kts 94°
2026-05-04 19:45 51.61957 11.83537 4984 ft 108 kts 94°
2026-05-04 19:45 51.61932 11.84741 4987 ft 108 kts 94°
2026-05-04 19:46 51.61905 11.85929 4984 ft 108 kts 94°
2026-05-04 19:46 51.61881 11.87134 4987 ft 108 kts 94°
2026-05-04 19:46 51.61855 11.88345 4985 ft 108 kts 94°
2026-05-04 19:46 51.61829 11.89556 4985 ft 108 kts 95°
2026-05-04 19:47 51.61804 11.90766 4983 ft 108 kts 94°
2026-05-04 19:47 51.61776 11.91968 4985 ft 108 kts 95°
2026-05-04 19:47 51.61749 11.93176 4987 ft 108 kts 94°
2026-05-04 19:47 51.61721 11.94380 4984 ft 108 kts 94°
2026-05-04 19:48 51.61692 11.95580 4986 ft 108 kts 94°
2026-05-04 19:48 51.61664 11.96783 4985 ft 107 kts 94°
2026-05-04 19:48 51.61635 11.97984 4982 ft 107 kts 95°
2026-05-04 19:48 51.61605 11.99185 4981 ft 108 kts 94°
2026-05-04 19:49 51.61575 12.00387 4982 ft 108 kts 95°
2026-05-04 19:49 51.61545 12.01593 4984 ft 108 kts 94°
2026-05-04 19:49 51.61513 12.02799 4985 ft 108 kts 95°
2026-05-04 19:49 51.61482 12.03989 4987 ft 108 kts 94°
2026-05-04 19:50 51.61448 12.05209 4988 ft 108 kts 94°
2026-05-04 19:50 51.61414 12.06398 4984 ft 108 kts 95°
2026-05-04 19:50 51.61380 12.07603 4985 ft 108 kts 94°
2026-05-04 19:50 51.61345 12.08812 4985 ft 108 kts 95°
2026-05-04 19:51 51.61311 12.10020 4984 ft 108 kts 95°
2026-05-04 19:51 51.61277 12.11221 4985 ft 108 kts 94°
2026-05-04 19:51 51.61241 12.12424 4985 ft 107 kts 95°
2026-05-04 19:51 51.61207 12.13627 4985 ft 107 kts 94°
2026-05-04 19:52 51.61170 12.14827 4984 ft 108 kts 94°
2026-05-04 19:52 51.61133 12.16029 4986 ft 108 kts 95°
2026-05-04 19:52 51.61097 12.17231 4982 ft 108 kts 94°
2026-05-04 19:52 51.61059 12.18433 4985 ft 108 kts 94°
2026-05-04 19:53 51.61021 12.19636 4987 ft 108 kts 95°
2026-05-04 19:53 51.60983 12.20845 4988 ft 108 kts 95°
2026-05-04 19:53 51.60945 12.22037 4987 ft 108 kts 94°
2026-05-04 19:53 51.60918 12.22854 4987 ft 108 kts 95°
2026-05-04 19:54 51.60864 12.24460 4984 ft 109 kts 95°
2026-05-04 19:54 51.60823 12.25674 4988 ft 109 kts 94°
2026-05-04 19:54 51.60615 12.26816 4981 ft 107 kts 124°
2026-05-04 19:54 51.60199 12.27801 4987 ft 106 kts 123°
2026-05-04 19:55 51.59934 12.28483 4986 ft 106 kts 124°
2026-05-04 19:55 51.59533 12.29480 4985 ft 106 kts 124°
2026-05-04 19:55 51.59139 12.30470 4988 ft 107 kts 125°
2026-05-04 19:55 51.58733 12.31487 4984 ft 107 kts 124°
2026-05-04 19:56 51.58330 12.32489 4988 ft 107 kts 124°
2026-05-04 19:56 51.57933 12.33481 4988 ft 107 kts 125°
2026-05-04 19:56 51.57530 12.34489 4987 ft 107 kts 124°
2026-05-04 19:56 51.57126 12.35495 4988 ft 107 kts 124°
2026-05-04 19:57 51.56722 12.36500 4988 ft 107 kts 125°
2026-05-04 19:57 51.56319 12.37506 4983 ft 107 kts 124°
2026-05-04 19:57 51.55914 12.38515 4987 ft 107 kts 124°
2026-05-04 19:57 51.55513 12.39512 4948 ft 106 kts 124°
2026-05-04 19:58 51.55104 12.40528 4820 ft 109 kts 124°
2026-05-04 19:58 51.54692 12.41553 4698 ft 110 kts 124°
2026-05-04 19:58 51.54267 12.42592 4551 ft 112 kts 125°
2026-05-04 19:58 51.53844 12.43632 4443 ft 111 kts 124°
2026-05-04 19:59 51.53418 12.44670 4311 ft 111 kts 124°
2026-05-04 19:59 51.52994 12.45705 4201 ft 111 kts 124°
2026-05-04 19:59 51.52564 12.46741 4081 ft 111 kts 124°
2026-05-04 19:59 51.52143 12.47758 3960 ft 111 kts 124°
2026-05-04 20:00 51.51714 12.48786 3841 ft 110 kts 125°
2026-05-04 20:00 51.51284 12.49808 3734 ft 110 kts 124°
2026-05-04 20:00 51.50856 12.50828 3619 ft 110 kts 124°
2026-05-04 20:00 51.50428 12.51842 3510 ft 109 kts 124°
2026-05-04 20:01 51.49999 12.52853 3401 ft 109 kts 124°
2026-05-04 20:01 51.49448 12.53695 3224 ft 113 kts 153°
2026-05-04 20:01 51.48689 12.53895 3130 ft 109 kts 182°
2026-05-04 20:01 51.47943 12.53908 3031 ft 109 kts 179°
2026-05-04 20:02 51.47184 12.53932 2965 ft 105 kts 180°
2026-05-04 20:02 51.46461 12.53958 2966 ft 104 kts 180°
2026-05-04 20:02 51.45734 12.53977 2969 ft 105 kts 179°
2026-05-04 20:02 51.45011 12.53877 2957 ft 105 kts 200°
2026-05-04 20:03 51.44472 12.53138 2962 ft 103 kts 241°
2026-05-04 20:03 51.44353 12.52050 2967 ft 102 kts 275°
2026-05-04 20:03 51.44364 12.50917 2966 ft 101 kts 271°
2026-05-04 20:03 51.44368 12.49784 2971 ft 102 kts 270°
2026-05-04 20:04 51.44345 12.48653 2967 ft 102 kts 269°
2026-05-04 20:04 51.44309 12.47520 2969 ft 102 kts 268°
2026-05-04 20:04 51.44269 12.46349 2870 ft 109 kts 268°
2026-05-04 20:04 51.44216 12.45090 2728 ft 116 kts 266°
2026-05-04 20:05 51.44153 12.43773 2568 ft 120 kts 268°
2026-05-04 20:05 51.44093 12.42424 2413 ft 122 kts 268°
2026-05-04 20:05 51.44028 12.41065 2245 ft 123 kts 267°
2026-05-04 20:05 51.43966 12.39695 2082 ft 123 kts 268°
2026-05-04 20:06 51.43903 12.38327 1917 ft 123 kts 268°
2026-05-04 20:06 51.43838 12.36958 1750 ft 123 kts 268°
2026-05-04 20:06 51.43776 12.35595 1590 ft 122 kts 268°
2026-05-04 20:06 51.43714 12.34257 1423 ft 122 kts 267°
2026-05-04 20:07 51.43649 12.32897 1259 ft 123 kts 267°
2026-05-04 20:07 51.43589 12.31533 1095 ft 123 kts 266°
2026-05-04 20:07 51.43521 12.30158 930 ft 124 kts 265°
2026-05-04 20:07 51.43467 12.28881 761 ft 106 kts 265°
2026-05-04 20:08 51.43411 12.27797 626 ft 91 kts 263°
2026-05-04 20:08 51.43372 12.26862 490 ft 79 kts 264°
2026-05-04 20:08 51.43333 12.26038 438 ft 68 kts 262°
2026-05-04 20:08 51.43303 12.25335 441 ft 60 kts 264°
2026-05-04 20:09 51.43268 12.24656 438 ft 62 kts 265°
2026-05-04 20:09 51.43238 12.23999 435 ft 56 kts 265°
2026-05-04 20:09 51.43214 12.23438 435 ft 46 kts 265°
2026-05-04 20:09 51.43189 12.22962 425 ft 41 kts 266°
2026-05-04 20:10 51.43167 12.22492 426 ft 43 kts 266°
2026-05-04 20:10 51.43144 12.22019 426 ft 42 kts 265°
2026-05-04 20:10 51.43128 12.21715 424 ft 14 kts 254°
2026-05-04 20:10 51.43064 12.21567 424 ft 19 kts 227°
2026-05-04 20:11 51.42975 12.21420 425 ft 9 kts 225°
2026-05-04 20:11 51.42964 12.21404 425 ft 6 kts 222°
2026-05-04 20:11 51.42949 12.21381 420 ft 0 kts 224°
2026-05-04 20:12 51.42945 12.21374 424 ft 5 kts 226°
2026-05-04 20:12 51.42894 12.21296 427 ft 15 kts 204°
2026-05-04 20:12 51.42766 12.21233 429 ft 24 kts 196°
2026-05-04 20:12 51.42571 12.21147 429 ft 33 kts 195°
2026-05-04 20:13 51.42342 12.21046 428 ft 33 kts 195°
2026-05-04 20:13 51.42121 12.20950 420 ft 28 kts 195°
2026-05-04 20:13 51.42050 12.20922 419 ft 7 kts 188°
2026-05-04 20:13 51.41996 12.20948 413 ft 9 kts 131°
2026-05-04 20:14 51.41973 12.21056 422 ft 12 kts 105°
2026-05-04 20:14 51.41947 12.21208 423 ft 16 kts 105°
2026-05-04 20:14 51.41913 12.21406 429 ft 20 kts 105°
2026-05-04 20:14 51.41884 12.21585 431 ft 13 kts 106°
2026-05-04 20:15 51.41871 12.21661 431 ft 9 kts 101°
2026-05-04 20:15 51.41892 12.21706 426 ft 9 kts 15°
2026-05-04 20:15 51.41959 12.21736 429 ft 1 kts 15°